| time (UTC) | temp F | wind direction | speed knots | gust knots | rain 1hr in | rain 24hr in | rain mn in | humidity % | barometer mb |
| 20260831093529 | 65 | 95 | 0.0 | 7.0 | 0.00 | 0.36 | 0.26 | 86 | 1016.0 |
| 20260831093032 | 65 | 118 | 0.0 | 7.0 | 0.03 | 0.36 | 0.26 | 86 | 1016.0 |
| 20260831092528 | 65 | 96 | 0.0 | 5.2 | 0.03 | 0.36 | 0.26 | 86 | 1017.0 |
| 20260831092028 | 65 | 130 | 3.5 | 7.0 | 0.03 | 0.36 | 0.26 | 86 | 1017.0 |
| 20260831091528 | 65 | 103 | 3.5 | 9.6 | 0.03 | 0.36 | 0.26 | 86 | 1017.0 |
| 20260831091028 | 65 | 105 | 4.3 | 9.6 | 0.03 | 0.36 | 0.26 | 86 | 1017.0 |
| 20260831090528 | 65 | 81 | 7.0 | 7.0 | 0.03 | 0.36 | 0.26 | 86 | 1017.0 |
| 20260831090029 | 65 | 95 | 0.0 | 7.0 | 0.03 | 0.36 | 0.26 | 86 | 1017.0 |
| 20260831085528 | 65 | 109 | 0.0 | 8.7 | 0.03 | 0.36 | 0.26 | 86 | 1017.0 |
| 20260831085028 | 65 | 85 | 6.1 | 8.7 | 0.03 | 0.36 | 0.26 | 86 | 1017.0 |
| 20260831084028 | 65 | 105 | 3.5 | 7.8 | 0.03 | 0.36 | 0.26 | 86 | 1017.0 |
| 20260831083528 | 65 | 98 | 3.5 | 7.8 | 0.03 | 0.36 | 0.26 | 86 | 1017.0 |
| 20260831083028 | 65 | 103 | 0.0 | 7.0 | 0.04 | 0.33 | 0.23 | 86 | 1017.0 |
| 20260831082528 | 65 | 100 | 4.3 | 7.0 | 0.04 | 0.33 | 0.23 | 85 | 1017.0 |
| 20260831082029 | 65 | 94 | 3.5 | 7.0 | 0.04 | 0.33 | 0.23 | 85 | 1017.0 |
| 20260831081528 | 65 | 86 | 3.5 | 7.0 | 0.04 | 0.33 | 0.23 | 85 | 1017.0 |
| 20260831080527 | 65 | 91 | 0.0 | 7.8 | 0.07 | 0.33 | 0.23 | 85 | 1017.0 |
| 20260831080028 | 65 | 89 | 3.5 | 7.8 | 0.07 | 0.33 | 0.23 | 85 | 1017.0 |
| 20260831075027 | 65 | 78 | 0.0 | 7.8 | 0.15 | 0.33 | 0.23 | 85 | 1017.0 |
| 20260831074527 | 65 | 96 | 3.5 | 7.8 | 0.15 | 0.33 | 0.23 | 85 | 1017.0 |
| 20260831074027 | 65 | 90 | 3.5 | 7.8 | 0.15 | 0.33 | 0.23 | 85 | 1017.0 |
| 20260831073527 | 65 | 81 | 3.5 | 7.8 | 0.15 | 0.33 | 0.23 | 85 | 1017.0 |
| 20260831073027 | 65 | 128 | 3.5 | 7.0 | 0.11 | 0.29 | 0.19 | 85 | 1017.0 |
| 20260831072528 | 65 | 96 | 0.0 | 7.8 | 0.12 | 0.29 | 0.19 | 84 | 1017.0 |
| 20260831071526 | 65 | 94 | 0.0 | 7.8 | 0.12 | 0.29 | 0.19 | 84 | 1017.0 |
| 20260831071027 | 65 | 110 | 3.5 | 7.8 | 0.10 | 0.26 | 0.16 | 84 | 1018.0 |
| 20260831070527 | 65 | 94 | 3.5 | 7.0 | 0.10 | 0.26 | 0.16 | 84 | 1018.0 |
| 20260831070026 | 65 | 100 | 5.2 | 7.8 | 0.11 | 0.26 | 0.16 | 84 | 1018.0 |
| 20260831065526 | 65 | 115 | 0.0 | 7.8 | 0.09 | 0.23 | 0.13 | 84 | 1018.0 |
| 20260831065026 | 65 | 108 | 5.2 | 6.1 | 0.04 | 0.18 | 0.08 | 84 | 1018.0 |
| 20260831064527 | 65 | 118 | 4.3 | 5.2 | 0.04 | 0.18 | 0.08 | 84 | 1018.0 |
| 20260831064026 | 65 | 109 | 0.0 | 5.2 | 0.05 | 0.18 | 0.08 | 84 | 1018.0 |
| 20260831063526 | 65 | 97 | 0.0 | 6.1 | 0.07 | 0.18 | 0.08 | 84 | 1018.0 |
| 20260831062526 | 65 | 83 | 4.3 | 7.0 | 0.06 | 0.17 | 0.07 | 84 | 1018.0 |
| 20260831062026 | 65 | 90 | 3.5 | 5.2 | 0.06 | 0.17 | 0.07 | 84 | 1018.0 |
| 20260831061527 | 65 | 94 | 0.0 | 5.2 | 0.06 | 0.17 | 0.07 | 84 | 1018.0 |
| 20260831055526 | 65 | 95 | 0.0 | 7.8 | 0.04 | 0.14 | 0.04 | 84 | 1018.0 |
| 20260831055026 | 65 | 94 | 3.5 | 7.8 | 0.04 | 0.14 | 0.04 | 83 | 1018.0 |
| 20260831054026 | 65 | 116 | 3.5 | 6.1 | 0.03 | 0.13 | 0.03 | 83 | 1018.0 |
| 20260831053526 | 65 | 102 | 0.0 | 6.1 | 0.01 | 0.11 | 0.01 | 83 | 1018.0 |
| 20260831053026 | 65 | 94 | 4.3 | 5.2 | 0.01 | 0.11 | 0.01 | 83 | 1018.0 |
| 20260831052525 | 65 | 89 | 3.5 | 5.2 | 0.01 | 0.11 | 0.01 | 83 | 1018.0 |
| 20260831052026 | 65 | 93 | 0.0 | 7.0 | 0.01 | 0.11 | 0.01 | 83 | 1018.0 |
| 20260831051525 | 65 | 95 | 3.5 | 7.0 | 0.01 | 0.11 | 0.01 | 83 | 1018.0 |
| 20260831050525 | 65 | 88 | 3.5 | 6.1 | 0.00 | 0.10 | 0.00 | 83 | 1018.0 |
| 20260831050025 | 65 | 93 | 3.5 | 5.2 | 0.00 | 0.10 | 0.00 | 83 | 1018.0 |
| 20260831045526 | 65 | 82 | 0.0 | 5.2 | 0.00 | 0.10 | 0.00 | 83 | 1018.0 |
| 20260831045025 | 65 | 89 | 3.5 | 5.2 | 0.00 | 0.10 | 0.00 | 83 | 1018.0 |
| 20260831044525 | 65 | 88 | 0.0 | 5.2 | 0.00 | 0.10 | 0.00 | 83 | 1018.0 |
| 20260831044025 | 65 | 88 | 3.5 | 5.2 | 0.00 | 0.10 | 0.00 | 83 | 1018.0 |
| 20260831043525 | 65 | 88 | 0.0 | 5.2 | 0.00 | 0.10 | 0.00 | 82 | 1018.0 |
| 20260831043024 | 65 | 88 | 3.5 | 7.0 | 0.00 | 0.10 | 0.00 | 82 | 1018.0 |
| 20260831042525 | 65 | 84 | 0.0 | 7.0 | 0.00 | 0.10 | 0.00 | 82 | 1018.0 |
| 20260831041525 | 65 | 103 | 5.2 | 7.0 | 0.00 | 0.10 | 0.00 | 82 | 1018.0 |
| 20260831041025 | 65 | 85 | 5.2 | 7.0 | 0.00 | 0.10 | 0.00 | 82 | 1018.0 |
| 20260831040024 | 65 | 92 | 0.0 | 5.2 | 0.00 | 0.10 | 0.00 | 82 | 1018.0 |
| 20260831035524 | 65 | 88 | 0.0 | 6.1 | 0.00 | 0.10 | 0.10 | 82 | 1018.0 |
| 20260831035024 | 65 | 86 | 3.5 | 6.1 | 0.00 | 0.10 | 0.10 | 82 | 1018.0 |
| 20260831034524 | 65 | 84 | 3.5 | 7.8 | 0.00 | 0.10 | 0.10 | 81 | 1018.0 |
| 20260831034024 | 66 | 80 | 4.3 | 7.8 | 0.00 | 0.10 | 0.10 | 81 | 1018.0 |
| 20260831033525 | 66 | 88 | 5.2 | 5.2 | 0.00 | 0.10 | 0.10 | 81 | 1018.0 |
| 20260831033024 | 66 | 89 | 3.5 | 5.2 | 0.00 | 0.10 | 0.10 | 81 | 1018.0 |
| 20260831032524 | 66 | 89 | 3.5 | 7.0 | 0.00 | 0.10 | 0.10 | 81 | 1018.0 |
| 20260831032024 | 66 | 102 | 3.5 | 7.0 | 0.00 | 0.10 | 0.10 | 81 | 1018.0 |
| 20260831031524 | 66 | 88 | 0.0 | 5.2 | 0.00 | 0.10 | 0.10 | 81 | 1018.0 |
| 20260831031025 | 66 | 99 | 0.0 | 6.1 | 0.00 | 0.10 | 0.10 | 81 | 1018.0 |
| 20260831030524 | 66 | 99 | 0.0 | 6.1 | 0.00 | 0.10 | 0.10 | 81 | 1018.0 |
| 20260831030024 | 66 | 97 | 3.5 | 6.1 | 0.00 | 0.10 | 0.10 | 81 | 1018.0 |
| 20260831025024 | 65 | 111 | 0.0 | 5.2 | 0.00 | 0.10 | 0.10 | 81 | 1018.0 |
| 20260831024524 | 65 | 112 | 3.5 | 5.2 | 0.00 | 0.10 | 0.10 | 81 | 1018.0 |
| 20260831023524 | 65 | 113 | 0.0 | 5.2 | 0.00 | 0.10 | 0.10 | 81 | 1018.0 |
| 20260831022523 | 65 | 112 | 4.3 | 5.2 | 0.01 | 0.10 | 0.10 | 81 | 1018.0 |
| 20260831022023 | 66 | 123 | 4.3 | 5.2 | 0.01 | 0.10 | 0.10 | 81 | 1018.0 |
| 20260831021523 | 66 | 123 | 0.0 | 6.1 | 0.01 | 0.10 | 0.10 | 80 | 1018.0 |
| 20260831021023 | 66 | 128 | 0.0 | 6.1 | 0.01 | 0.10 | 0.10 | 80 | 1018.0 |
| 20260831020524 | 66 | 127 | 3.5 | 5.2 | 0.01 | 0.10 | 0.10 | 80 | 1018.0 |
| 20260831020023 | 66 | 127 | 0.0 | 4.3 | 0.01 | 0.10 | 0.10 | 80 | 1018.0 |
| 20260831014523 | 66 | 121 | 0.0 | 6.1 | 0.01 | 0.10 | 0.10 | 80 | 1018.0 |
| 20260831014023 | 66 | 117 | 0.0 | 7.0 | 0.01 | 0.10 | 0.10 | 80 | 1018.0 |
| 20260831013523 | 66 | 132 | 0.0 | 7.0 | 0.01 | 0.10 | 0.10 | 80 | 1018.0 |
| 20260831013024 | 66 | 164 | 0.0 | 7.0 | 0.03 | 0.09 | 0.09 | 79 | 1018.0 |
| 20260831012523 | 66 | 129 | 5.2 | 7.0 | 0.03 | 0.09 | 0.09 | 79 | 1018.0 |
| 20260831012022 | 66 | 129 | 0.0 | 8.7 | 0.03 | 0.09 | 0.09 | 79 | 1018.0 |
| 20260831011523 | 66 | 129 | 3.5 | 8.7 | 0.03 | 0.09 | 0.09 | 79 | 1018.0 |
| 20260831011023 | 66 | 232 | 4.3 | 7.8 | 0.03 | 0.09 | 0.09 | 78 | 1018.0 |
| 20260831010522 | 66 | 147 | 3.5 | 7.8 | 0.04 | 0.09 | 0.09 | 77 | 1018.0 |
| 20260831010023 | 66 | 134 | 3.5 | 6.1 | 0.04 | 0.09 | 0.09 | 77 | 1018.0 |
| 20260831005522 | 66 | 134 | 0.0 | 6.1 | 0.04 | 0.09 | 0.09 | 77 | 1018.0 |
| 20260831005022 | 66 | 178 | 0.0 | 5.2 | 0.04 | 0.09 | 0.09 | 76 | 1018.0 |
| 20260831004522 | 66 | 178 | 0.0 | 5.2 | 0.04 | 0.09 | 0.09 | 76 | 1018.0 |
| 20260831004023 | 66 | 175 | 0.0 | 5.2 | 0.04 | 0.09 | 0.09 | 76 | 1018.0 |
| 20260831003522 | 66 | 186 | 0.0 | 7.0 | 0.04 | 0.09 | 0.09 | 76 | 1018.0 |
| 20260831003022 | 66 | 192 | 0.0 | 7.0 | 0.01 | 0.06 | 0.06 | 76 | 1018.0 |
| 20260831002022 | 66 | 180 | 3.5 | 7.8 | 0.01 | 0.06 | 0.06 | 76 | 1018.0 |
| 20260831001522 | 66 | 188 | 3.5 | 7.0 | 0.01 | 0.06 | 0.06 | 76 | 1018.0 |
| 20260831001022 | 66 | 192 | 0.0 | 6.1 | 0.01 | 0.06 | 0.06 | 75 | 1018.0 |
| 20260831000522 | 66 | 190 | 0.0 | 6.1 | 0.00 | 0.05 | 0.05 | 75 | 1018.0 |
| 20260831000023 | 66 | 186 | 0.0 | 5.2 | 0.00 | 0.05 | 0.05 | 75 | 1018.0 |
| 20260830235522 | 66 | 198 | 0.0 | 5.2 | 0.00 | 0.05 | 0.05 | 74 | 1018.0 |
| 20260830235022 | 66 | 197 | 0.0 | 5.2 | 0.00 | 0.05 | 0.05 | 74 | 1018.0 |
| 20260830234522 | 66 | 198 | 0.0 | 5.2 | 0.00 | 0.05 | 0.05 | 74 | 1018.0 |
| 20260830234022 | 66 | 198 | 3.5 | 5.2 | 0.00 | 0.05 | 0.05 | 74 | 1018.0 |
| 20260830233522 | 67 | 199 | 0.0 | 4.3 | 0.00 | 0.05 | 0.05 | 73 | 1018.0 |
| 20260830233022 | 67 | 198 | 0.0 | 4.3 | 0.00 | 0.05 | 0.05 | 73 | 1018.0 |
| 20260830232521 | 67 | 198 | 3.5 | 3.5 | 0.00 | 0.05 | 0.05 | 73 | 1018.0 |
| 20260830232021 | 67 | 198 | 0.0 | 3.5 | 0.00 | 0.05 | 0.05 | 73 | 1018.0 |
| 20260830231521 | 67 | 199 | 0.0 | 6.1 | 0.00 | 0.05 | 0.05 | 73 | 1018.0 |
| 20260830231022 | 67 | 198 | 0.0 | 6.1 | 0.00 | 0.05 | 0.05 | 72 | 1018.0 |
| 20260830230522 | 67 | 198 | 0.0 | 5.2 | 0.00 | 0.05 | 0.05 | 72 | 1018.0 |
| 20260830230021 | 67 | 199 | 0.0 | 4.3 | 0.00 | 0.05 | 0.05 | 72 | 1018.0 |
| 20260830225021 | 67 | 198 | 0.0 | 3.5 | 0.00 | 0.05 | 0.05 | 72 | 1018.0 |
| 20260830224021 | 67 | 198 | 3.5 | 6.1 | 0.00 | 0.05 | 0.05 | 72 | 1018.0 |
| 20260830223522 | 67 | 189 | 3.5 | 5.2 | 0.00 | 0.05 | 0.05 | 72 | 1018.0 |
| 20260830223021 | 67 | 187 | 0.0 | 5.2 | 0.00 | 0.05 | 0.05 | 72 | 1018.0 |
| 20260830222521 | 67 | 188 | 0.0 | 5.2 | 0.00 | 0.05 | 0.05 | 71 | 1018.0 |
| 20260830221521 | 67 | 188 | 0.0 | 6.1 | 0.00 | 0.05 | 0.05 | 71 | 1018.0 |
| 20260830221021 | 67 | 178 | 3.5 | 6.1 | 0.00 | 0.05 | 0.05 | 71 | 1018.0 |
| 20260830220521 | 67 | 168 | 3.5 | 6.1 | 0.00 | 0.05 | 0.05 | 70 | 1018.0 |
| 20260830220020 | 67 | 190 | 0.0 | 5.2 | 0.00 | 0.05 | 0.05 | 70 | 1018.0 |
| 20260830215520 | 67 | 191 | 0.0 | 7.8 | 0.00 | 0.05 | 0.05 | 70 | 1018.0 |
| 20260830215020 | 67 | 258 | 4.3 | 7.8 | 0.00 | 0.05 | 0.05 | 69 | 1018.0 |
| 20260830214520 | 67 | 194 | 5.2 | 7.0 | 0.01 | 0.05 | 0.05 | 69 | 1018.0 |
| 20260830214020 | 68 | 179 | 5.2 | 7.8 | 0.01 | 0.05 | 0.05 | 69 | 1018.0 |
| 20260830213521 | 68 | 154 | 3.5 | 9.6 | 0.01 | 0.05 | 0.05 | 69 | 1018.0 |
| 20260830213020 | 68 | 190 | 5.2 | 9.6 | 0.01 | 0.05 | 0.05 | 69 | 1018.0 |
| 20260830212520 | 68 | 187 | 3.5 | 7.0 | 0.01 | 0.05 | 0.05 | 68 | 1018.0 |
| 20260830211520 | 68 | 185 | 0.0 | 7.8 | 0.01 | 0.05 | 0.05 | 67 | 1018.0 |
| 20260830211020 | 68 | 190 | 3.5 | 8.7 | 0.01 | 0.05 | 0.05 | 66 | 1018.0 |
| 20260830210019 | 68 | 240 | 3.5 | 9.6 | 0.01 | 0.05 | 0.05 | 65 | 1018.0 |
| 20260830205519 | 68 | 199 | 6.1 | 7.8 | 0.01 | 0.05 | 0.05 | 65 | 1018.0 |
| 20260830205020 | 68 | 250 | 0.0 | 12.2 | 0.01 | 0.05 | 0.05 | 64 | 1018.0 |
| 20260830204519 | 68 | 273 | 7.0 | 12.2 | 0.00 | 0.04 | 0.04 | 64 | 1018.0 |
| 20260830204019 | 68 | 159 | 3.5 | 8.7 | 0.00 | 0.04 | 0.04 | 64 | 1018.0 |
| 20260830203519 | 68 | 214 | 0.0 | 7.8 | 0.00 | 0.04 | 0.04 | 63 | 1018.0 |
| 20260830203019 | 69 | 142 | 3.5 | 10.4 | 0.00 | 0.04 | 0.04 | 63 | 1018.0 |
| 20260830202019 | 69 | 184 | 3.5 | 13.0 | 0.00 | 0.04 | 0.04 | 63 | 1018.0 |
| 20260830201519 | 69 | 259 | 5.2 | 8.7 | 0.00 | 0.04 | 0.04 | 62 | 1018.0 |
| 20260830201019 | 69 | 199 | 6.1 | 11.3 | 0.00 | 0.04 | 0.04 | 62 | 1018.0 |
| 20260830200519 | 69 | 259 | 6.1 | 11.3 | 0.00 | 0.04 | 0.04 | 62 | 1018.0 |
| 20260830200019 | 69 | 194 | 5.2 | 12.2 | 0.00 | 0.04 | 0.04 | 61 | 1018.0 |
| 20260830195019 | 69 | 193 | 5.2 | 11.3 | 0.00 | 0.04 | 0.04 | 60 | 1018.0 |
| 20260830194019 | 69 | 246 | 3.5 | 12.2 | 0.00 | 0.04 | 0.04 | 60 | 1018.0 |
| 20260830193520 | 69 | 209 | 3.5 | 12.2 | 0.00 | 0.04 | 0.04 | 60 | 1018.0 |
| 20260830193019 | 70 | 171 | 3.5 | 10.4 | 0.00 | 0.04 | 0.04 | 60 | 1018.0 |
| 20260830192519 | 70 | 173 | 3.5 | 12.2 | 0.00 | 0.04 | 0.04 | 60 | 1018.0 |
| 20260830192018 | 70 | 154 | 5.2 | 12.2 | 0.00 | 0.04 | 0.04 | 60 | 1018.0 |
| 20260830191518 | 70 | 248 | 7.0 | 8.7 | 0.00 | 0.04 | 0.04 | 59 | 1018.0 |
| 20260830191018 | 70 | 212 | 3.5 | 8.7 | 0.00 | 0.04 | 0.04 | 59 | 1018.0 |
| 20260830190519 | 70 | 197 | 5.2 | 13.0 | 0.00 | 0.04 | 0.04 | 58 | 1018.0 |
| 20260830190019 | 70 | 153 | 7.8 | 13.0 | 0.00 | 0.04 | 0.04 | 57 | 1018.0 |
| 20260830185018 | 71 | 188 | 5.2 | 12.2 | 0.00 | 0.04 | 0.04 | 60 | 1018.0 |
| 20260830184518 | 71 | 196 | 0.0 | 10.4 | 0.00 | 0.04 | 0.04 | 59 | 1018.0 |
| 20260830184018 | 71 | 176 | 3.5 | 14.8 | 0.00 | 0.04 | 0.04 | 59 | 1018.0 |
| 20260830183518 | 71 | 229 | 4.3 | 14.8 | 0.00 | 0.04 | 0.04 | 59 | 1018.0 |
| 20260830182018 | 71 | 272 | 6.1 | 16.5 | 0.00 | 0.04 | 0.04 | 61 | 1018.0 |
| 20260830181518 | 71 | 259 | 8.7 | 15.6 | 0.00 | 0.04 | 0.04 | 62 | 1018.0 |
| 20260830181018 | 71 | 163 | 5.2 | 14.8 | 0.00 | 0.04 | 0.04 | 61 | 1018.0 |
| 20260830180517 | 71 | 196 | 7.0 | 15.6 | 0.00 | 0.04 | 0.04 | 67 | 1018.0 |
| 20260830175018 | 71 | 220 | 5.2 | 13.9 | 0.00 | 0.04 | 0.04 | 71 | 1018.0 |
| 20260830174517 | 70 | 233 | 6.1 | 13.0 | 0.00 | 0.04 | 0.04 | 72 | 1018.0 |
| 20260830174017 | 70 | 209 | 7.0 | 13.0 | 0.00 | 0.04 | 0.04 | 73 | 1018.0 |
| 20260830173517 | 69 | 270 | 3.5 | 13.0 | 0.00 | 0.04 | 0.04 | 74 | 1018.0 |
| 20260830173017 | 68 | 248 | 7.8 | 13.0 | 0.00 | 0.04 | 0.04 | 76 | 1018.0 |
| 20260830172518 | 68 | 181 | 3.5 | 13.0 | 0.00 | 0.04 | 0.04 | 77 | 1018.0 |
| 20260830172016 | 68 | 149 | 6.1 | 10.4 | 0.00 | 0.04 | 0.04 | 78 | 1018.0 |
| 20260830170516 | 67 | 182 | 4.3 | 10.4 | 0.00 | 0.04 | 0.04 | 79 | 1019.0 |
| 20260830170016 | 67 | 248 | 3.5 | 10.4 | 0.00 | 0.04 | 0.04 | 79 | 1019.0 |
| 20260830165516 | 66 | 162 | 0.0 | 7.8 | 0.00 | 0.04 | 0.04 | 79 | 1019.0 |
| 20260830165017 | 66 | 197 | 3.5 | 7.8 | 0.00 | 0.04 | 0.04 | 79 | 1019.0 |
| 20260830164516 | 66 | 204 | 3.5 | 7.8 | 0.00 | 0.04 | 0.04 | 79 | 1019.0 |
| 20260830164016 | 66 | 175 | 3.5 | 7.0 | 0.00 | 0.04 | 0.04 | 79 | 1019.0 |
| 20260830163016 | 66 | 155 | 0.0 | 7.0 | 0.00 | 0.04 | 0.04 | 79 | 1019.0 |
| 20260830162517 | 66 | 151 | 4.3 | 7.8 | 0.00 | 0.04 | 0.04 | 79 | 1019.0 |
| 20260830162016 | 66 | 182 | 7.0 | 7.8 | 0.00 | 0.04 | 0.04 | 79 | 1019.0 |
| 20260830161015 | 66 | 189 | 0.0 | 7.8 | 0.00 | 0.04 | 0.04 | 79 | 1019.0 |
| 20260830160516 | 66 | 271 | 3.5 | 7.8 | 0.00 | 0.04 | 0.04 | 79 | 1019.0 |
| 20260830160015 | 66 | 178 | 7.8 | 7.8 | 0.00 | 0.04 | 0.04 | 80 | 1019.0 |
| 20260830155517 | 66 | 198 | 0.0 | 5.2 | 0.00 | 0.04 | 0.04 | 80 | 1019.0 |
| 20260830155015 | 66 | 202 | 0.0 | 5.2 | 0.00 | 0.04 | 0.04 | 80 | 1019.0 |
| 20260830154515 | 66 | 179 | 0.0 | 5.2 | 0.00 | 0.04 | 0.04 | 80 | 1019.0 |
| 20260830154015 | 66 | 171 | 0.0 | 5.2 | 0.00 | 0.04 | 0.04 | 80 | 1019.0 |
| 20260830153515 | 65 | 189 | 0.0 | 5.2 | 0.00 | 0.04 | 0.04 | 80 | 1019.0 |
| 20260830153015 | 65 | 160 | 4.3 | 5.2 | 0.00 | 0.04 | 0.04 | 80 | 1019.0 |
| 20260830152515 | 65 | 156 | 0.0 | 5.2 | 0.00 | 0.04 | 0.04 | 80 | 1019.0 |
| 20260830152016 | 65 | 154 | 0.0 | 5.2 | 0.00 | 0.05 | 0.04 | 80 | 1019.0 |
| 20260830151515 | 65 | 154 | 5.2 | 5.2 | 0.00 | 0.05 | 0.04 | 80 | 1019.0 |
| 20260830151015 | 65 | 150 | 0.0 | 5.2 | 0.00 | 0.05 | 0.04 | 79 | 1019.0 |
| 20260830150515 | 65 | 145 | 0.0 | 5.2 | 0.00 | 0.05 | 0.04 | 79 | 1019.0 |
| 20260830145515 | 65 | 146 | 0.0 | 5.2 | 0.00 | 0.05 | 0.04 | 78 | 1019.0 |
| 20260830145015 | 65 | 146 | 3.5 | 5.2 | 0.00 | 0.05 | 0.04 | 78 | 1019.0 |
| 20260830144515 | 65 | 170 | 0.0 | 4.3 | 0.00 | 0.05 | 0.04 | 78 | 1019.0 |
| 20260830144015 | 65 | 146 | 3.5 | 4.3 | 0.00 | 0.05 | 0.04 | 78 | 1019.0 |
| 20260830143015 | 65 | 146 | 0.0 | 6.1 | 0.00 | 0.05 | 0.04 | 77 | 1019.0 |
| 20260830142513 | 65 | 145 | 5.2 | 5.2 | 0.00 | 0.05 | 0.04 | 77 | 1019.0 |
| 20260830142013 | 65 | 165 | 0.0 | 4.3 | 0.00 | 0.05 | 0.04 | 76 | 1019.0 |
| 20260830141513 | 65 | 153 | 0.0 | 4.3 | 0.00 | 0.05 | 0.04 | 76 | 1019.0 |
| 20260830141014 | 65 | 157 | 4.3 | 4.3 | 0.00 | 0.05 | 0.04 | 75 | 1019.0 |
| 20260830140513 | 65 | 148 | 0.0 | 4.3 | 0.01 | 0.05 | 0.04 | 75 | 1019.0 |
| 20260830140013 | 65 | 181 | 3.5 | 5.2 | 0.01 | 0.05 | 0.04 | 75 | 1019.0 |
| 20260830135513 | 65 | 210 | 4.3 | 5.2 | 0.01 | 0.05 | 0.04 | 74 | 1019.0 |
| 20260830135014 | 65 | 356 | 0.0 | 3.5 | 0.02 | 0.05 | 0.04 | 74 | 1019.0 |
| 20260830134513 | 65 | 356 | 0.0 | 4.3 | 0.03 | 0.05 | 0.04 | 74 | 1019.0 |
| 20260830134012 | 64 | 356 | 0.0 | 4.3 | 0.03 | 0.05 | 0.04 | 74 | 1019.0 |
| 20260830133513 | 64 | 356 | 0.0 | 3.5 | 0.04 | 0.05 | 0.04 | 73 | 1019.0 |
| 20260830133013 | 64 | 356 | 0.0 | 0.0 | 0.04 | 0.05 | 0.04 | 73 | 1019.0 |
| 20260830132512 | 64 | 356 | 0.0 | 0.0 | 0.04 | 0.05 | 0.04 | 73 | 1019.0 |
| 20260830132012 | 64 | 356 | 0.0 | 0.0 | 0.04 | 0.05 | 0.04 | 73 | 1019.0 |
| 20260830131513 | 64 | 356 | 0.0 | 0.0 | 0.04 | 0.05 | 0.04 | 73 | 1019.0 |
| 20260830130512 | 64 | 356 | 0.0 | 3.5 | 0.03 | 0.04 | 0.03 | 72 | 1019.0 |
| 20260830130012 | 64 | 356 | 3.5 | 5.2 | 0.03 | 0.04 | 0.03 | 72 | 1019.0 |
| 20260830125512 | 64 | 356 | 0.0 | 7.0 | 0.03 | 0.04 | 0.03 | 72 | 1019.0 |
| 20260830125012 | 64 | 356 | 0.0 | 7.0 | 0.02 | 0.03 | 0.02 | 72 | 1019.0 |
| 20260830124512 | 64 | 0 | 0.0 | 7.8 | 0.01 | 0.02 | 0.01 | 72 | 1019.0 |
| 20260830124011 | 64 | 1 | 4.3 | 7.8 | 0.01 | 0.02 | 0.01 | 72 | 1019.0 |
| 20260830123512 | 64 | 8 | 5.2 | 7.8 | 0.00 | 0.01 | 0.00 | 72 | 1019.0 |
| 20260830123012 | 64 | 338 | 5.2 | 7.8 | 0.00 | 0.01 | 0.00 | 72 | 1019.0 |
| 20260830122011 | 64 | 306 | 5.2 | 7.8 | 0.00 | 0.01 | 0.00 | 71 | 1019.0 |
| 20260830121011 | 64 | 339 | 3.5 | 8.7 | 0.00 | 0.01 | 0.00 | 71 | 1018.0 |
| 20260830120511 | 64 | 339 | 7.8 | 8.7 | 0.00 | 0.01 | 0.00 | 71 | 1018.0 |
| 20260830120011 | 64 | 4 | 7.0 | 8.7 | 0.00 | 0.01 | 0.00 | 71 | 1018.0 |
| 20260830115512 | 64 | 6 | 5.2 | 8.7 | 0.00 | 0.01 | 0.00 | 71 | 1018.0 |
| 20260830115011 | 64 | 356 | 3.5 | 8.7 | 0.00 | 0.01 | 0.00 | 71 | 1018.0 |
| 20260830114511 | 64 | 339 | 7.8 | 8.7 | 0.00 | 0.01 | 0.00 | 71 | 1018.0 |
| 20260830113511 | 64 | 23 | 0.0 | 7.8 | 0.00 | 0.01 | 0.00 | 71 | 1018.0 |
| 20260830113010 | 64 | 13 | 5.2 | 7.8 | 0.00 | 0.01 | 0.00 | 71 | 1018.0 |
| 20260830112511 | 64 | 356 | 5.2 | 8.7 | 0.00 | 0.01 | 0.00 | 71 | 1018.0 |
| 20260830112011 | 64 | 11 | 5.2 | 8.7 | 0.00 | 0.01 | 0.00 | 71 | 1018.0 |
| 20260830111511 | 64 | 356 | 6.1 | 7.8 | 0.00 | 0.01 | 0.00 | 70 | 1018.0 |
| 20260830111010 | 64 | 6 | 5.2 | 7.0 | 0.00 | 0.01 | 0.00 | 70 | 1018.0 |
| 20260830110510 | 64 | 9 | 3.5 | 7.0 | 0.00 | 0.01 | 0.00 | 70 | 1018.0 |
| 20260830110010 | 64 | 2 | 5.2 | 5.2 | 0.00 | 0.01 | 0.00 | 70 | 1018.0 |
| 20260830105511 | 64 | 356 | 3.5 | 5.2 | 0.00 | 0.02 | 0.00 | 70 | 1018.0 |
| 20260830105010 | 64 | 5 | 5.2 | 5.2 | 0.00 | 0.02 | 0.00 | 70 | 1018.0 |
| 20260830104510 | 64 | 4 | 4.3 | 5.2 | 0.00 | 0.02 | 0.00 | 70 | 1018.0 |
| 20260830104010 | 64 | 5 | 3.5 | 5.2 | 0.00 | 0.02 | 0.00 | 69 | 1018.0 |
| 20260830103510 | 64 | 5 | 0.0 | 4.3 | 0.00 | 0.02 | 0.00 | 69 | 1018.0 |
| 20260830102510 | 64 | 5 | 4.3 | 5.2 | 0.00 | 0.02 | 0.00 | 69 | 1018.0 |
| 20260830101509 | 64 | 4 | 3.5 | 5.2 | 0.00 | 0.02 | 0.00 | 69 | 1018.0 |
| 20260830101010 | 64 | 4 | 4.3 | 5.2 | 0.00 | 0.02 | 0.00 | 69 | 1018.0 |
| 20260830100509 | 64 | 4 | 3.5 | 5.2 | 0.00 | 0.02 | 0.00 | 68 | 1018.0 |
| 20260830100009 | 64 | 4 | 0.0 | 5.2 | 0.00 | 0.02 | 0.00 | 68 | 1018.0 |
| 20260830095009 | 64 | 181 | 3.5 | 5.2 | 0.00 | 0.02 | 0.00 | 68 | 1018.0 |
| 20260830094509 | 64 | 171 | 0.0 | 4.3 | 0.00 | 0.02 | 0.00 | 68 | 1018.0 |